Location: *
(49.3500°N, 12.6000°E)
Time: 13:02:15
(UTC+00:00)

STARLINK-36 - Pass Details

Date: 18 October 2019
Orbit: 549 x 551 km, 53.0° (Epoch: 21 November)

Event Time Altitude Azimuth Distance (km) Brightness Sun altitude
Rises 16:53:52 0° 251° (WSW) 2,712 9.1 -7.2°
Reaches altitude 10° 16:56:06 10° 252° (WSW) 1,820 7.9 -7.5°
Maximum altitude 17:00:14 78° 339° (NNW) 567 3.7 -8.2°
Enters shadow 17:04:20 10° 66° (ENE) 1,800 5.6 -8.9°
